This is the latest recevied weather packets stored in our database for station/object SV1JSO-13. If no packets are shown the sender has not sent any weather packets the latest 10 day(s).
| Time | Temp. | Humidity | Pressure | Rain* | Wind** | Luminosity | Snow |
|---|---|---|---|---|---|---|---|
| 1787895300 | 28.89° C | 56% | 1008.5 hPa | 0 mm | - | 158 W/m² | - |
| 1787895000 | 28.89° C | 59% | 1008.5 hPa | 0 mm | - | 144 W/m² | - |
| 1787894700 | 28.89° C | 59% | 1008.4 hPa | 0 mm | - | 130 W/m² | - |
| 1787894400 | 28.89° C | 58% | 1008.4 hPa | 0 mm | - | 118 W/m² | - |
| 1787894100 | 28.89° C | 56% | 1008.3 hPa | 0 mm | - | 107 W/m² | - |
| 1787893800 | 28.89° C | 54% | 1008.4 hPa | 0 mm | - | 97 W/m² | - |
| 1787893500 | 28.33° C | 54% | 1008.4 hPa | 0 mm | - | 88 W/m² | - |
| 1787893200 | 28.33° C | 54% | 1008.4 hPa | 0 mm | - | 80 W/m² | - |
| 1787892900 | 28.33° C | 55% | 1008.5 hPa | 0 mm | - | 72 W/m² | - |
| 1787892600 | 27.78° C | 56% | 1008.4 hPa | 0 mm | - | 63 W/m² | - |
| 1787892300 | 27.78° C | 58% | 1008.4 hPa | 0 mm | - | 57 W/m² | - |
| 1787892000 | 27.78° C | 59% | 1008.3 hPa | 0 mm | - | 46 W/m² | - |
| 1787891700 | 27.78° C | 58% | 1008.4 hPa | 0 mm | - | 42 W/m² | - |
| 1787891400 | 27.78° C | 58% | 1008.4 hPa | 0 mm | - | 36 W/m² | - |
| 1787891100 | 27.78° C | 57% | 1008.4 hPa | 0 mm | - | 31 W/m² | - |
| 1787890800 | 27.78° C | 58% | 1008.4 hPa | 0 mm | - | 26 W/m² | - |
| 1787890500 | 27.78° C | 59% | 1008.3 hPa | 0 mm | - | 22 W/m² | - |
| 1787890209 | 27.78° C | 57% | 1008.4 hPa | 0 mm | - | 17 W/m² | - |
| 1787889900 | 27.22° C | 55% | 1008.4 hPa | 0 mm | - | 12 W/m² | - |
| 1787889600 | 27.78° C | 55% | 1008.2 hPa | 0 mm | - | 8 W/m² | - |
| 1787889300 | 27.78° C | 55% | 1008.2 hPa | 0 mm | - | 5 W/m² | - |
| 1787889000 | 27.78° C | 56% | 1008.3 hPa | 0 mm | - | 3 W/m² | - |
| 1787888700 | 27.78° C | 55% | 1008.3 hPa | 0 mm | - | 1 W/m² | - |
| 1787888400 | 27.78° C | 56% | 1008.2 hPa | 0 mm | - | 1 W/m² | - |
| 1787888100 | 27.22° C | 58% | 1008.2 hPa | 0 mm | - | 0 W/m² | - |
* Rain latest hour (hover to see other rain measurements)
** Current wind speed in m/s (hover to see current wind gust speed)